Time,TemperatureF,DewpointF,PressureIn,WindDirection,WindDirectionDegrees,WindSpeedMPH,WindSpeedGustMPH,Humidity,HourlyPrecipIn,Conditions,Clouds,dailyrainin,SoftwareType,DateUTC
2013-07-03 00:03:00,61.3,38.0,30.08,West,270,4.6,0.0,42,0.00,CLR,,0.00,WeatherDisplay:10.37,2013-07-03 07:03:00,
2013-07-03 00:08:00,61.2,37.9,30.08,West,270,4.6,4.6,42,0.00,CLR,,0.00,WeatherDisplay:10.37,2013-07-03 07:08:00,
2013-07-03 00:13:00,61.3,38.0,30.08,NW,315,4.6,4.6,42,0.00,CLR,,0.00,WeatherDisplay:10.37,2013-07-03 07:13:00,
2013-07-03 00:19:00,61.3,38.0,30.08,NW,315,5.8,5.8,42,0.00,CLR,,0.00,WeatherDisplay:10.37,2013-07-03 07:19:00,
2013-07-03 00:25:00,61.3,38.0,30.08,NE,45,8.1,8.1,42,0.00,CLR,,0.00,WeatherDisplay:10.37,2013-07-03 07:25:00,
2013-07-03 00:30:00,61.3,38.0,30.08,SW,225,3.5,3.5,42,0.00,CLR,,0.00,WeatherDisplay:10.37,2013-07-03 07:30:00,
2013-07-03 00:35:00,61.2,37.3,30.08,East,90,4.6,4.6,41,0.00,CLR,,0.00,WeatherDisplay:10.37,2013-07-03 07:35:00,
2013-07-03 00:40:00,61.3,37.4,30.08,SSW,202,3.5,3.5,41,0.00,CLR,,0.00,WeatherDisplay:10.37,2013-07-03 07:40:00,
2013-07-03 00:41:00,61.3,37.4,30.08,SW,225,3.5,3.8,41,0.00,CLR,,0.00,WeatherDisplay:10.37,2013-07-03 07:41:00,
2013-07-03 00:46:00,61.3,37.4,30.08,NE,45,3.5,3.5,41,0.00,CLR,,0.00,WeatherDisplay:10.37,2013-07-03 07:46:00,
2013-07-03 00:52:00,61.2,37.3,30.08,SW,225,10.4,10.4,41,0.00,CLR,,0.00,WeatherDisplay:10.37,2013-07-03 07:52:00,
2013-07-03 00:57:00,61.2,37.3,30.08,North,0,5.8,0.0,41,0.00,CLR,,0.00,WeatherDisplay:10.37,2013-07-03 07:57:00,
2013-07-03 01:01:00,61.0,37.7,30.08,SW,225,8.1,8.1,42,0.00,CLR,,0.00,WeatherDisplay:10.37,2013-07-03 08:01:00,
2013-07-03 01:06:00,61.0,37.7,30.08,North,0,5.8,5.8,42,0.00,CLR,,0.00,WeatherDisplay:10.37,2013-07-03 08:06:00,
2013-07-03 01:08:00,61.0,37.7,30.08,NE,45,8.1,8.1,42,0.00,CLR,,0.00,WeatherDisplay:10.37,2013-07-03 08:08:00,
2013-07-03 01:09:00,61.0,37.7,30.08,North,0,5.8,5.8,42,0.00,CLR,,0.00,WeatherDisplay:10.37,2013-07-03 08:09:00,
2013-07-03 01:14:00,61.0,37.7,30.08,NE,45,9.2,9.2,42,0.00,CLR,,0.00,WeatherDisplay:10.37,2013-07-03 08:14:00,
2013-07-03 01:18:00,60.8,38.1,30.07,SW,225,9.2,9.2,43,0.00,CLR,,0.00,WeatherDisplay:10.37,2013-07-03 08:18:00,
2013-07-03 01:23:00,60.6,38.0,30.07,West,270,3.5,3.5,43,0.00,CLR,,0.00,WeatherDisplay:10.37,2013-07-03 08:23:00,
2013-07-03 01:28:00,60.6,38.0,30.06,East,90,8.1,8.1,43,0.00,CLR,,0.00,WeatherDisplay:10.37,2013-07-03 08:28:00,
2013-07-03 01:34:00,60.6,38.0,30.06,West,270,4.6,4.6,43,0.00,CLR,,0.00,WeatherDisplay:10.37,2013-07-03 08:34:00,
2013-07-03 01:41:00,60.4,37.8,30.06,North,0,10.4,10.4,43,0.00,CLR,,0.00,WeatherDisplay:10.37,2013-07-03 08:41:00,
2013-07-03 01:44:00,60.4,37.2,30.06,West,270,3.5,3.5,42,0.00,CLR,,0.00,WeatherDisplay:10.37,2013-07-03 08:44:00,
2013-07-03 01:46:00,60.4,37.2,30.06,North,0,3.5,3.5,42,0.00,CLR,,0.00,WeatherDisplay:10.37,2013-07-03 08:46:00,
2013-07-03 01:51:00,60.4,37.2,30.06,NW,315,1.2,0.0,42,0.00,CLR,,0.00,WeatherDisplay:10.37,2013-07-03 08:51:00,
2013-07-03 01:55:00,60.4,37.2,30.06,West,270,4.6,4.6,42,0.00,CLR,,0.00,WeatherDisplay:10.37,2013-07-03 08:55:00,
2013-07-03 02:00:00,60.4,37.2,30.06,North,0,4.6,4.6,42,0.00,CLR,,0.00,WeatherDisplay:10.37,2013-07-03 09:00:00,
2013-07-03 02:05:00,60.3,37.1,30.06,NW,315,5.8,5.8,42,0.00,CLR,,0.00,WeatherDisplay:10.37,2013-07-03 09:05:00,
2013-07-03 02:06:00,60.3,37.1,30.06,NW,315,5.8,5.8,42,0.00,CLR,,0.00,WeatherDisplay:10.37,2013-07-03 09:06:00,
2013-07-03 02:11:00,60.3,37.1,30.06,West,270,3.5,0.0,42,0.00,CLR,,0.00,WeatherDisplay:10.37,2013-07-03 09:11:00,
2013-07-03 02:16:00,60.3,37.1,30.06,NE,45,6.9,0.0,42,0.00,CLR,,0.00,WeatherDisplay:10.37,2013-07-03 09:16:00,
2013-07-03 02:21:00,60.1,36.9,30.07,NW,315,3.5,0.0,42,0.00,CLR,,0.00,WeatherDisplay:10.37,2013-07-03 09:21:00,
2013-07-03 02:26:00,60.1,37.5,30.07,North,0,3.5,3.5,43,0.00,CLR,,0.00,WeatherDisplay:10.37,2013-07-03 09:26:00,
2013-07-03 02:31:00,59.9,37.3,30.07,West,270,2.3,2.3,43,0.00,CLR,,0.00,WeatherDisplay:10.37,2013-07-03 09:31:00,
2013-07-03 02:36:00,59.7,37.2,30.07,West,270,3.5,3.5,43,0.00,CLR,,0.00,WeatherDisplay:10.37,2013-07-03 09:36:00,
2013-07-03 02:41:00,59.7,37.2,30.07,NW,315,2.3,2.3,43,0.00,CLR,,0.00,WeatherDisplay:10.37,2013-07-03 09:41:00,
2013-07-03 02:47:00,59.5,37.6,30.07,West,270,1.2,0.0,44,0.00,CLR,,0.00,WeatherDisplay:10.37,2013-07-03 09:47:00,
2013-07-03 02:50:00,59.4,37.4,30.07,SW,225,1.2,0.0,44,0.00,CLR,,0.00,WeatherDisplay:10.37,2013-07-03 09:50:00,
2013-07-03 02:51:00,59.4,38.0,30.08,NW,315,2.3,2.3,45,0.00,CLR,,0.00,WeatherDisplay:10.37,2013-07-03 09:51:00,
2013-07-03 02:57:00,59.4,38.6,30.07,West,270,3.5,0.0,46,0.00,CLR,,0.00,WeatherDisplay:10.37,2013-07-03 09:57:00,
2013-07-03 03:02:00,59.4,38.6,30.07,West,270,2.3,0.0,46,0.00,CLR,,0.00,WeatherDisplay:10.37,2013-07-03 10:02:00,
2013-07-03 03:06:00,59.4,39.1,30.07,NW,315,3.5,3.5,47,0.00,CLR,,0.00,WeatherDisplay:10.37,2013-07-03 10:06:00,
2013-07-03 03:11:00,59.4,39.1,30.07,SE,135,1.2,0.0,47,0.00,CLR,,0.00,WeatherDisplay:10.37,2013-07-03 10:11:00,
2013-07-03 03:16:00,59.4,39.7,30.07,South,180,1.2,0.0,48,0.00,CLR,,0.00,WeatherDisplay:10.37,2013-07-03 10:16:00,
2013-07-03 03:21:00,59.4,40.2,30.07,West,270,1.2,1.2,49,0.00,CLR,,0.00,WeatherDisplay:10.37,2013-07-03 10:21:00,
2013-07-03 03:27:00,59.4,40.7,30.07,NW,315,3.5,3.5,50,0.00,CLR,,0.00,WeatherDisplay:10.37,2013-07-03 10:27:00,
2013-07-03 03:32:00,59.4,40.7,30.07,West,270,3.5,3.5,50,0.00,CLR,,0.00,WeatherDisplay:10.37,2013-07-03 10:32:00,
2013-07-03 03:37:00,59.4,40.7,30.07,NW,315,4.6,4.6,50,0.00,CLR,,0.00,WeatherDisplay:10.37,2013-07-03 10:37:00,
2013-07-03 03:42:00,59.4,40.7,30.07,NW,315,4.5,4.5,50,0.00,CLR,,0.00,WeatherDisplay:10.37,2013-07-03 10:42:00,
2013-07-03 03:47:00,59.4,40.7,30.07,NW,315,3.5,3.5,50,0.00,CLR,,0.00,WeatherDisplay:10.37,2013-07-03 10:47:00,
2013-07-03 03:49:00,59.4,40.2,30.07,West,270,2.3,2.3,49,0.00,CLR,,0.00,WeatherDisplay:10.37,2013-07-03 10:49:00,
2013-07-03 03:54:00,59.2,40.0,30.06,NW,315,2.3,0.0,49,0.00,CLR,,0.00,WeatherDisplay:10.37,2013-07-03 10:54:00,
2013-07-03 03:57:00,59.2,40.0,30.07,West,270,2.3,2.3,49,0.00,CLR,,0.00,WeatherDisplay:10.37,2013-07-03 10:57:00,
2013-07-03 03:59:00,59.0,39.9,30.07,NW,315,2.3,0.0,49,0.00,CLR,,0.00,WeatherDisplay:10.37,2013-07-03 10:59:00,
2013-07-03 04:04:00,59.0,39.9,30.07,NW,315,3.5,3.5,49,0.00,CLR,,0.00,WeatherDisplay:10.37,2013-07-03 11:04:00,
2013-07-03 04:08:00,58.8,39.7,30.07,NW,315,1.2,0.0,49,0.00,CLR,,0.00,WeatherDisplay:10.37,2013-07-03 11:08:00,
2013-07-03 04:10:00,58.8,39.7,30.07,West,270,1.2,0.0,49,0.00,CLR,,0.00,WeatherDisplay:10.37,2013-07-03 11:10:00,
2013-07-03 04:15:00,58.8,39.7,30.08,South,180,1.2,0.0,49,0.00,CLR,,0.00,WeatherDisplay:10.37,2013-07-03 11:15:00,
2013-07-03 04:20:00,58.8,40.2,30.08,SE,135,1.2,0.0,50,0.00,CLR,,0.00,WeatherDisplay:10.37,2013-07-03 11:20:00,
2013-07-03 04:25:00,58.6,40.0,30.08,SW,225,1.2,0.0,50,0.00,CLR,,0.00,WeatherDisplay:10.37,2013-07-03 11:25:00,
2013-07-03 04:30:00,58.6,40.0,30.07,West,270,1.2,0.0,50,0.00,CLR,,0.00,WeatherDisplay:10.37,2013-07-03 11:30:00,
2013-07-03 04:35:00,58.6,40.6,30.07,West,270,1.2,0.0,51,0.00,CLR,,0.00,WeatherDisplay:10.37,2013-07-03 11:35:00,
2013-07-03 04:40:00,58.8,40.7,30.07,West,270,1.2,0.0,51,0.00,CLR,,0.00,WeatherDisplay:10.37,2013-07-03 11:40:00,
2013-07-03 04:45:00,58.6,40.6,30.07,SW,225,1.2,0.0,51,0.00,CLR,,0.00,WeatherDisplay:10.37,2013-07-03 11:45:00,
2013-07-03 04:49:00,58.6,40.6,30.07,SW,225,0.0,0.0,51,0.00,CLR,,0.00,WeatherDisplay:10.37,2013-07-03 11:49:00,
2013-07-03 04:54:00,58.6,40.6,30.07,West,270,1.2,0.0,51,0.00,CLR,,0.00,WeatherDisplay:10.37,2013-07-03 11:54:00,
2013-07-03 04:59:00,58.5,40.4,30.08,West,270,1.2,0.0,51,0.00,CLR,,0.00,WeatherDisplay:10.37,2013-07-03 11:59:00,
2013-07-03 05:02:00,58.5,40.4,30.07,SW,225,1.2,0.0,51,0.00,CLR,,0.00,WeatherDisplay:10.37,2013-07-03 12:02:00,
2013-07-03 05:03:00,58.5,40.4,30.07,SW,225,1.2,0.0,51,0.00,CLR,,0.00,WeatherDisplay:10.37,2013-07-03 12:03:00,
2013-07-03 05:08:00,58.3,40.2,30.07,SW,225,1.2,0.0,51,0.00,CLR,,0.00,WeatherDisplay:10.37,2013-07-03 12:08:00,
2013-07-03 05:12:00,58.3,40.2,30.07,SW,225,0.0,0.0,51,0.00,CLR,,0.00,WeatherDisplay:10.37,2013-07-03 12:12:00,
2013-07-03 05:17:00,58.3,40.7,30.08,West,270,1.2,0.0,52,0.00,CLR,,0.00,WeatherDisplay:10.37,2013-07-03 12:17:00,
2013-07-03 05:21:00,58.3,40.7,30.08,West,270,3.5,3.5,52,0.00,CLR,,0.00,WeatherDisplay:10.37,2013-07-03 12:21:00,
2013-07-03 05:25:00,58.3,40.7,30.08,NW,315,2.3,2.3,52,0.00,CLR,,0.00,WeatherDisplay:10.37,2013-07-03 12:25:00,
2013-07-03 05:30:00,58.1,41.0,30.08,West,270,1.2,1.2,53,0.00,CLR,,0.00,WeatherDisplay:10.37,2013-07-03 12:30:00,
2013-07-03 05:35:00,58.1,41.0,30.08,West,270,1.2,0.0,53,0.00,CLR,,0.00,WeatherDisplay:10.37,2013-07-03 12:35:00,
2013-07-03 05:40:00,58.3,41.2,30.08,NW,315,1.2,0.0,53,0.00,CLR,,0.00,WeatherDisplay:10.37,2013-07-03 12:40:00,
2013-07-03 05:45:00,58.3,41.2,30.08,West,270,1.2,0.0,53,0.00,CLR,,0.00,WeatherDisplay:10.37,2013-07-03 12:45:00,
2013-07-03 05:47:00,58.3,41.2,30.08,West,270,1.2,0.0,53,0.00,CLR,,0.00,WeatherDisplay:10.37,2013-07-03 12:47:00,
2013-07-03 05:53:00,58.1,41.0,30.08,West,270,1.2,0.0,53,0.00,CLR,,0.00,WeatherDisplay:10.37,2013-07-03 12:53:00,
2013-07-03 05:58:00,58.1,41.0,30.08,West,270,1.2,0.0,53,0.00,CLR,,0.00,WeatherDisplay:10.37,2013-07-03 12:58:00,
2013-07-03 06:03:00,58.1,41.0,30.08,West,270,1.2,1.2,53,0.00,CLR,,0.00,WeatherDisplay:10.37,2013-07-03 13:03:00,
2013-07-03 06:08:00,58.1,41.0,30.08,West,270,1.2,1.2,53,0.00,CLR,,0.00,WeatherDisplay:10.37,2013-07-03 13:08:00,
2013-07-03 06:13:00,58.3,41.2,30.09,West,270,1.2,0.0,53,0.00,CLR,,0.00,WeatherDisplay:10.37,2013-07-03 13:13:00,
2013-07-03 06:18:00,58.3,41.2,30.08,West,270,2.3,2.3,53,0.00,CLR,,0.00,WeatherDisplay:10.37,2013-07-03 13:18:00,
2013-07-03 06:23:00,58.3,41.2,30.08,North,0,1.2,1.2,53,0.00,CLR,,0.00,WeatherDisplay:10.37,2013-07-03 13:23:00,
2013-07-03 06:26:00,58.5,41.4,30.08,NW,315,2.3,0.0,53,0.00,CLR,,0.00,WeatherDisplay:10.37,2013-07-03 13:26:00,
2013-07-03 06:27:00,58.5,41.4,30.08,NW,315,1.2,1.2,53,0.00,CLR,,0.00,WeatherDisplay:10.37,2013-07-03 13:27:00,
2013-07-03 06:32:00,58.6,41.5,30.08,North,0,3.1,3.1,53,0.00,CLR,,0.00,WeatherDisplay:10.37,2013-07-03 13:32:00,
2013-07-03 06:37:00,58.8,42.2,30.08,NW,315,1.2,0.0,54,0.00,CLR,,0.00,WeatherDisplay:10.37,2013-07-03 13:37:00,
2013-07-03 06:42:00,59.2,42.5,30.08,NW,315,1.2,1.2,54,0.00,CLR,,0.00,WeatherDisplay:10.37,2013-07-03 13:42:00,
2013-07-03 06:47:00,59.4,42.2,30.08,North,0,1.2,0.0,53,0.00,CLR,,0.00,WeatherDisplay:10.37,2013-07-03 13:47:00,
2013-07-03 06:52:00,59.9,43.2,30.08,South,180,1.2,0.0,54,0.00,CLR,,0.00,WeatherDisplay:10.37,2013-07-03 13:52:00,
2013-07-03 06:57:00,60.3,43.1,30.08,North,0,1.2,0.0,53,0.00,CLR,,0.00,WeatherDisplay:10.37,2013-07-03 13:57:00,
2013-07-03 07:02:00,60.6,42.4,30.08,North,0,1.2,0.0,51,0.00,CLR,,0.00,WeatherDisplay:10.37,2013-07-03 14:02:00,
2013-07-03 07:07:00,60.8,41.5,30.08,North,0,1.2,0.0,49,0.00,CLR,,0.00,WeatherDisplay:10.37,2013-07-03 14:07:00,
2013-07-03 07:12:00,60.8,40.4,30.08,West,270,1.2,0.0,47,0.00,CLR,,0.00,WeatherDisplay:10.37,2013-07-03 14:12:00,
2013-07-03 07:17:00,60.8,39.9,30.08,North,0,1.2,0.0,46,0.00,CLR,,0.00,WeatherDisplay:10.37,2013-07-03 14:17:00,
2013-07-03 07:22:00,61.0,38.9,30.08,NE,45,3.5,3.5,44,0.00,CLR,,0.00,WeatherDisplay:10.37,2013-07-03 14:22:00,
2013-07-03 07:27:00,61.0,37.7,30.08,North,0,1.2,1.2,42,0.00,CLR,,0.00,WeatherDisplay:10.37,2013-07-03 14:27:00,
2013-07-03 07:32:00,61.3,37.4,30.08,West,270,2.3,2.3,41,0.00,CLR,,0.00,WeatherDisplay:10.37,2013-07-03 14:32:00,
2013-07-03 07:33:00,61.3,36.8,30.08,West,270,2.3,2.3,40,0.00,CLR,,0.00,WeatherDisplay:10.37,2013-07-03 14:33:00,
2013-07-03 07:38:00,61.9,36.6,30.08,NE,45,1.2,0.0,39,0.00,CLR,,0.00,WeatherDisplay:10.37,2013-07-03 14:38:00,
2013-07-03 07:43:00,62.4,35.1,30.08,NE,45,5.8,5.8,36,0.00,CLR,,0.00,WeatherDisplay:10.37,2013-07-03 14:43:00,
2013-07-03 07:45:00,62.8,34.0,30.08,NE,45,1.2,0.0,34,0.00,CLR,,0.00,WeatherDisplay:10.37,2013-07-03 14:45:00,
2013-07-03 07:50:00,63.3,31.3,30.08,SE,135,1.2,0.0,30,0.00,CLR,,0.00,WeatherDisplay:10.37,2013-07-03 14:50:00,
2013-07-03 07:52:00,63.3,29.6,30.08,SE,135,1.6,1.6,28,0.00,CLR,,0.00,WeatherDisplay:10.37,2013-07-03 14:52:00,
2013-07-03 07:57:00,64.2,27.6,30.08,NW,315,3.5,0.0,25,0.00,CLR,,0.00,WeatherDisplay:10.37,2013-07-03 14:57:00,
2013-07-03 07:58:00,64.2,26.6,30.08,South,180,1.2,0.0,24,0.00,CLR,,0.00,WeatherDisplay:10.37,2013-07-03 14:58:00,
2013-07-03 08:03:00,64.2,18.4,30.08,NE,45,4.6,4.6,17,0.00,CLR,,0.00,WeatherDisplay:10.37,2013-07-03 15:03:00,
2013-07-03 08:08:00,66.9,22.0,30.08,North,0,3.5,0.0,18,0.00,CLR,,0.00,WeatherDisplay:10.37,2013-07-03 15:08:00,
2013-07-03 08:13:00,69.4,16.4,30.08,North,0,1.2,0.0,13,0.00,CLR,,0.00,WeatherDisplay:10.37,2013-07-03 15:13:00,
2013-07-03 08:15:00,70.2,17.0,30.08,NE,45,3.5,3.5,13,0.00,CLR,,0.00,WeatherDisplay:10.37,2013-07-03 15:15:00,
2013-07-03 08:20:00,72.9,19.1,30.08,North,0,3.5,3.5,13,0.00,CLR,,0.00,WeatherDisplay:10.37,2013-07-03 15:20:00,
2013-07-03 08:25:00,73.6,19.7,30.08,East,90,2.3,2.3,13,0.00,CLR,,0.00,WeatherDisplay:10.37,2013-07-03 15:25:00,
2013-07-03 08:30:00,73.4,19.5,30.08,NE,45,3.5,3.5,13,0.00,CLR,,0.00,WeatherDisplay:10.37,2013-07-03 15:30:00,
2013-07-03 08:35:00,73.0,19.2,30.08,SE,135,2.3,0.0,13,0.00,CLR,,0.00,WeatherDisplay:10.37,2013-07-03 15:35:00,
2013-07-03 08:40:00,73.6,19.7,30.08,South,180,1.2,0.0,13,0.00,CLR,,0.00,WeatherDisplay:10.37,2013-07-03 15:40:00,
2013-07-03 08:46:00,75.7,21.4,30.08,West,270,1.2,1.2,13,0.00,CLR,,0.00,WeatherDisplay:10.37,2013-07-03 15:46:00,
2013-07-03 08:51:00,76.1,64.8,30.09,West,270,3.5,3.5,68,0.00,CLR,,0.00,WeatherDisplay:10.37,2013-07-03 15:51:00,
2013-07-03 08:52:00,75.9,64.6,30.08,West,270,2.3,2.3,68,0.00,CLR,,0.00,WeatherDisplay:10.37,2013-07-03 15:52:00,
2013-07-03 08:53:00,75.7,64.4,30.09,South,180,2.3,0.0,68,0.00,CLR,,0.00,WeatherDisplay:10.37,2013-07-03 15:53:00,
2013-07-03 08:56:00,75.9,64.6,30.09,West,270,5.8,5.8,68,0.00,CLR,,0.00,WeatherDisplay:10.37,2013-07-03 15:56:00,
2013-07-03 09:01:00,74.5,63.2,30.09,North,0,3.5,3.5,68,0.00,CLR,,0.00,WeatherDisplay:10.37,2013-07-03 16:01:00,
2013-07-03 09:06:00,74.7,63.4,30.08,NW,315,3.5,3.5,68,0.00,CLR,,0.00,WeatherDisplay:10.37,2013-07-03 16:06:00,
2013-07-03 09:11:00,75.2,63.9,30.08,North,0,5.8,5.8,68,0.00,CLR,,0.00,WeatherDisplay:10.37,2013-07-03 16:11:00,
2013-07-03 09:16:00,75.9,64.6,30.08,West,270,5.8,5.8,68,0.00,CLR,,0.00,WeatherDisplay:10.37,2013-07-03 16:16:00,
2013-07-03 09:21:00,75.4,64.1,30.08,SW,225,2.3,0.0,68,0.00,CLR,,0.00,WeatherDisplay:10.37,2013-07-03 16:21:00,
2013-07-03 09:27:00,75.7,64.4,30.08,SE,135,2.3,2.3,68,0.00,CLR,,0.00,WeatherDisplay:10.37,2013-07-03 16:27:00,
2013-07-03 09:32:00,75.9,64.6,30.08,North,0,2.3,2.3,68,0.00,CLR,,0.00,WeatherDisplay:10.37,2013-07-03 16:32:00,
2013-07-03 09:37:00,76.6,65.3,30.08,NW,315,3.5,3.8,68,0.00,CLR,,0.00,WeatherDisplay:10.37,2013-07-03 16:37:00,
2013-07-03 09:42:00,75.7,64.4,30.08,SW,225,3.5,3.5,68,0.00,CLR,,0.00,WeatherDisplay:10.37,2013-07-03 16:42:00,
2013-07-03 09:47:00,75.4,64.1,30.08,West,270,5.8,5.8,68,0.00,CLR,,0.00,WeatherDisplay:10.37,2013-07-03 16:47:00,
2013-07-03 09:53:00,75.9,64.6,30.08,South,180,2.3,0.0,68,0.00,CLR,,0.00,WeatherDisplay:10.37,2013-07-03 16:53:00,
2013-07-03 09:58:00,77.7,66.3,30.08,East,90,1.2,1.2,68,0.00,CLR,,0.00,WeatherDisplay:10.37,2013-07-03 16:58:00,
2013-07-03 10:03:00,78.1,66.7,30.08,SW,225,3.5,3.5,68,0.00,CLR,,0.00,WeatherDisplay:10.37,2013-07-03 17:03:00,
2013-07-03 10:08:00,78.4,67.0,30.08,East,90,2.3,2.3,68,0.00,CLR,,0.00,WeatherDisplay:10.37,2013-07-03 17:08:00,
2013-07-03 10:14:00,77.2,65.8,30.08,SW,225,8.1,8.1,68,0.00,CLR,,0.00,WeatherDisplay:10.37,2013-07-03 17:14:00,
2013-07-03 10:19:00,75.9,64.6,30.08,West,270,8.1,8.1,68,0.00,CLR,,0.00,WeatherDisplay:10.37,2013-07-03 17:19:00,
2013-07-03 10:24:00,76.3,64.9,30.08,SW,225,3.5,0.0,68,0.00,CLR,,0.00,WeatherDisplay:10.37,2013-07-03 17:24:00,
2013-07-03 10:29:00,76.5,65.1,30.08,NW,315,4.6,4.6,68,0.00,CLR,,0.00,WeatherDisplay:10.37,2013-07-03 17:29:00,
2013-07-03 10:34:00,75.9,64.6,30.08,West,270,5.8,5.8,68,0.00,CLR,,0.00,WeatherDisplay:10.37,2013-07-03 17:34:00,
2013-07-03 10:39:00,76.6,65.3,30.08,NW,315,4.6,4.6,68,0.00,CLR,,0.00,WeatherDisplay:10.37,2013-07-03 17:39:00,
2013-07-03 10:44:00,77.0,65.6,30.08,WNW,292,10.4,10.4,68,0.00,CLR,,0.00,WeatherDisplay:10.37,2013-07-03 17:44:00,
2013-07-03 10:49:00,76.3,64.9,30.08,West,270,4.6,4.6,68,0.00,CLR,,0.00,WeatherDisplay:10.37,2013-07-03 17:49:00,
2013-07-03 10:54:00,75.7,64.4,30.08,West,270,10.4,10.4,68,0.00,CLR,,0.00,WeatherDisplay:10.37,2013-07-03 17:54:00,
2013-07-03 10:59:00,74.8,63.6,30.08,WNW,292,10.4,10.4,68,0.00,CLR,,0.00,WeatherDisplay:10.37,2013-07-03 17:59:00,
2013-07-03 11:04:00,74.5,63.2,30.08,NW,315,11.5,11.5,68,0.00,CLR,,0.00,WeatherDisplay:10.37,2013-07-03 18:04:00,
2013-07-03 11:10:00,74.7,63.4,30.08,NE,45,6.9,6.9,68,0.00,CLR,,0.00,WeatherDisplay:10.37,2013-07-03 18:10:00,
2013-07-03 11:15:00,75.6,64.3,30.08,West,270,3.5,3.5,68,0.00,CLR,,0.00,WeatherDisplay:10.37,2013-07-03 18:15:00,
2013-07-03 11:20:00,76.3,64.9,30.08,NW,315,10.4,10.4,68,0.00,CLR,,0.00,WeatherDisplay:10.37,2013-07-03 18:20:00,
2013-07-03 11:25:00,75.6,64.3,30.08,NW,315,10.4,10.4,68,0.00,CLR,,0.00,WeatherDisplay:10.37,2013-07-03 18:25:00,
2013-07-03 11:30:00,75.0,63.7,30.07,NW,315,18.4,18.4,68,0.00,CLR,,0.00,WeatherDisplay:10.37,2013-07-03 18:30:00,
2013-07-03 11:35:00,74.8,63.6,30.08,West,270,9.2,9.2,68,0.00,CLR,,0.00,WeatherDisplay:10.37,2013-07-03 18:35:00,
2013-07-03 11:40:00,76.6,65.3,30.08,NW,315,8.1,8.1,68,0.00,CLR,,0.00,WeatherDisplay:10.37,2013-07-03 18:40:00,
2013-07-03 11:45:00,76.8,65.5,30.08,North,0,10.4,10.4,68,0.00,CLR,,0.00,WeatherDisplay:10.37,2013-07-03 18:45:00,
2013-07-03 11:50:00,76.8,65.5,30.08,WNW,292,10.4,10.4,68,0.00,CLR,,0.00,WeatherDisplay:10.37,2013-07-03 18:50:00,
2013-07-03 11:56:00,76.8,65.5,30.08,West,270,16.1,16.1,68,0.00,CLR,,0.00,WeatherDisplay:10.37,2013-07-03 18:56:00,
2013-07-03 12:02:00,76.5,65.1,30.08,NW,315,6.9,6.9,68,0.00,CLR,,0.00,WeatherDisplay:10.37,2013-07-03 19:02:00,
2013-07-03 12:07:00,76.3,64.9,30.08,South,180,5.8,5.8,68,0.00,CLR,,0.00,WeatherDisplay:10.37,2013-07-03 19:07:00,
2013-07-03 12:12:00,75.9,64.6,30.08,East,90,8.1,8.1,68,0.00,CLR,,0.00,WeatherDisplay:10.37,2013-07-03 19:12:00,
2013-07-03 12:17:00,76.5,65.1,30.08,South,180,10.4,10.4,68,0.00,CLR,,0.00,WeatherDisplay:10.37,2013-07-03 19:17:00,
2013-07-03 12:22:00,76.1,64.8,30.08,NW,315,10.4,10.4,68,0.00,CLR,,0.00,WeatherDisplay:10.37,2013-07-03 19:22:00,
2013-07-03 12:27:00,75.7,64.4,30.08,NW,315,15.2,15.2,68,0.00,CLR,,0.00,WeatherDisplay:10.37,2013-07-03 19:27:00,
2013-07-03 12:32:00,75.9,64.6,30.08,North,0,9.2,9.2,68,0.00,CLR,,0.00,WeatherDisplay:10.37,2013-07-03 19:32:00,
2013-07-03 12:37:00,77.2,65.8,30.08,West,270,3.5,3.5,68,0.00,CLR,,0.00,WeatherDisplay:10.37,2013-07-03 19:37:00,
2013-07-03 12:42:00,77.4,66.0,30.08,West,270,8.1,8.1,68,0.00,CLR,,0.00,WeatherDisplay:10.37,2013-07-03 19:42:00,
2013-07-03 12:47:00,77.2,65.8,30.08,NW,315,16.1,16.1,68,0.00,CLR,,0.00,WeatherDisplay:10.37,2013-07-03 19:47:00,
2013-07-03 12:53:00,77.7,66.3,30.08,ESE,112,4.6,4.6,68,0.00,CLR,,0.00,WeatherDisplay:10.37,2013-07-03 19:53:00,
2013-07-03 12:59:00,77.4,66.0,30.08,SE,135,5.8,5.8,68,0.00,CLR,,0.00,WeatherDisplay:10.37,2013-07-03 19:59:00,
2013-07-03 13:04:00,77.2,65.8,30.07,West,270,11.5,11.5,68,0.00,CLR,,0.00,WeatherDisplay:10.37,2013-07-03 20:04:00,
2013-07-03 13:09:00,77.2,65.8,30.08,NE,45,9.2,9.2,68,0.00,CLR,,0.00,WeatherDisplay:10.37,2013-07-03 20:09:00,
2013-07-03 13:14:00,77.7,66.3,30.08,NE,45,5.8,5.8,68,0.00,CLR,,0.00,WeatherDisplay:10.37,2013-07-03 20:14:00,
2013-07-03 13:19:00,77.4,66.0,30.07,NW,315,8.1,8.1,68,0.00,CLR,,0.00,WeatherDisplay:10.37,2013-07-03 20:19:00,
2013-07-03 13:24:00,76.5,65.1,30.08,NE,45,5.8,5.8,68,0.00,CLR,,0.00,WeatherDisplay:10.37,2013-07-03 20:24:00,
2013-07-03 13:29:00,77.2,65.8,30.07,SW,225,4.6,4.6,68,0.00,CLR,,0.00,WeatherDisplay:10.37,2013-07-03 20:29:00,
2013-07-03 13:34:00,77.5,66.1,30.08,South,180,8.1,8.1,68,0.00,CLR,,0.00,WeatherDisplay:10.37,2013-07-03 20:34:00,
2013-07-03 13:39:00,78.3,66.8,30.07,NW,315,4.6,4.6,68,0.00,CLR,,0.00,WeatherDisplay:10.37,2013-07-03 20:39:00,
2013-07-03 13:45:00,78.4,67.0,30.08,NW,315,10.4,10.4,68,0.00,CLR,,0.00,WeatherDisplay:10.37,2013-07-03 20:45:00,
2013-07-03 13:50:00,77.7,66.3,30.08,North,0,8.1,8.1,68,0.00,CLR,,0.00,WeatherDisplay:10.37,2013-07-03 20:50:00,
2013-07-03 13:55:00,77.7,66.3,30.07,NW,315,5.8,5.8,68,0.00,CLR,,0.00,WeatherDisplay:10.37,2013-07-03 20:55:00,
2013-07-03 14:00:00,77.4,66.0,30.07,NE,45,5.8,5.8,68,0.00,CLR,,0.00,WeatherDisplay:10.37,2013-07-03 21:00:00,
2013-07-03 14:05:00,77.7,66.3,30.07,South,180,3.5,3.5,68,0.00,CLR,,0.00,WeatherDisplay:10.37,2013-07-03 21:05:00,
2013-07-03 14:10:00,78.3,66.8,30.07,East,90,13.8,13.8,68,0.00,CLR,,0.00,WeatherDisplay:10.37,2013-07-03 21:10:00,
2013-07-03 14:15:00,78.1,66.7,30.07,North,0,5.8,5.8,68,0.00,CLR,,0.00,WeatherDisplay:10.37,2013-07-03 21:15:00,
2013-07-03 14:20:00,77.0,65.6,30.07,NE,45,10.4,10.4,68,0.00,CLR,,0.00,WeatherDisplay:10.37,2013-07-03 21:20:00,
2013-07-03 14:25:00,77.0,65.6,30.07,NW,315,10.4,10.4,68,0.00,CLR,,0.00,WeatherDisplay:10.37,2013-07-03 21:25:00,
2013-07-03 14:30:00,76.6,65.3,30.06,NE,45,15.0,15.0,68,0.00,CLR,,0.00,WeatherDisplay:10.37,2013-07-03 21:30:00,
2013-07-03 14:35:00,76.6,65.3,30.06,NE,45,11.4,11.4,68,0.00,CLR,,0.00,WeatherDisplay:10.37,2013-07-03 21:35:00,
2013-07-03 14:40:00,76.1,64.8,30.06,SE,135,12.7,12.7,68,0.00,CLR,,0.00,WeatherDisplay:10.37,2013-07-03 21:40:00,
2013-07-03 14:46:00,75.7,64.4,30.06,East,90,10.4,10.4,68,0.00,CLR,,0.00,WeatherDisplay:10.37,2013-07-03 21:46:00,
2013-07-03 14:51:00,77.0,65.6,30.07,NW,315,6.9,6.9,68,0.00,CLR,,0.00,WeatherDisplay:10.37,2013-07-03 21:51:00,
2013-07-03 14:56:00,76.6,65.3,30.06,WNW,292,12.7,12.7,68,0.00,CLR,,0.00,WeatherDisplay:10.37,2013-07-03 21:56:00,
2013-07-03 15:01:00,76.1,64.8,30.06,NW,315,17.3,17.3,68,0.00,CLR,,0.00,WeatherDisplay:10.37,2013-07-03 22:01:00,
2013-07-03 15:06:00,77.0,65.6,30.06,NW,315,10.4,10.4,68,0.00,CLR,,0.00,WeatherDisplay:10.37,2013-07-03 22:06:00,
2013-07-03 15:11:00,76.8,65.5,30.06,NW,315,9.2,9.2,68,0.00,CLR,,0.00,WeatherDisplay:10.37,2013-07-03 22:11:00,
2013-07-03 15:16:00,76.3,64.9,30.06,NW,315,12.7,12.7,68,0.00,CLR,,0.00,WeatherDisplay:10.37,2013-07-03 22:16:00,
2013-07-03 15:21:00,76.5,65.1,30.06,WNW,292,6.9,6.9,68,0.00,CLR,,0.00,WeatherDisplay:10.37,2013-07-03 22:21:00,
2013-07-03 15:26:00,76.8,65.5,30.06,NW,315,20.7,20.7,68,0.00,CLR,,0.00,WeatherDisplay:10.37,2013-07-03 22:26:00,
2013-07-03 15:32:00,75.7,64.4,30.06,East,90,5.8,5.8,68,0.00,CLR,,0.00,WeatherDisplay:10.37,2013-07-03 22:32:00,
2013-07-03 15:37:00,75.7,64.4,30.06,NW,315,13.8,13.8,68,0.00,CLR,,0.00,WeatherDisplay:10.37,2013-07-03 22:37:00,
2013-07-03 15:42:00,76.3,64.9,30.06,NE,45,6.9,6.9,68,0.00,CLR,,0.00,WeatherDisplay:10.37,2013-07-03 22:42:00,
2013-07-03 15:47:00,75.7,64.4,30.06,NE,45,11.5,11.5,68,0.00,CLR,,0.00,WeatherDisplay:10.37,2013-07-03 22:47:00,
2013-07-03 15:52:00,75.6,64.3,30.06,NE,45,10.4,10.4,68,0.00,CLR,,0.00,WeatherDisplay:10.37,2013-07-03 22:52:00,
2013-07-03 15:58:00,74.8,63.6,30.06,West,270,12.7,12.7,68,0.00,CLR,,0.00,WeatherDisplay:10.37,2013-07-03 22:58:00,
2013-07-03 16:03:00,73.9,62.7,30.06,NE,45,5.8,6.9,68,0.00,CLR,,0.00,WeatherDisplay:10.37,2013-07-03 23:03:00,
2013-07-03 16:08:00,73.2,62.0,30.06,SW,225,15.0,15.0,68,0.00,CLR,,0.00,WeatherDisplay:10.37,2013-07-03 23:08:00,
2013-07-03 16:13:00,72.9,61.7,30.06,SE,135,12.7,12.7,68,0.00,CLR,,0.00,WeatherDisplay:10.37,2013-07-03 23:13:00,
2013-07-03 16:19:00,73.9,62.7,30.06,NW,315,10.4,10.4,68,0.00,CLR,,0.00,WeatherDisplay:10.37,2013-07-03 23:19:00,
2013-07-03 16:24:00,74.1,62.9,30.06,North,0,9.2,9.2,68,0.00,CLR,,0.00,WeatherDisplay:10.37,2013-07-03 23:24:00,
2013-07-03 16:29:00,74.1,62.9,30.06,NW,315,16.1,16.1,68,0.00,CLR,,0.00,WeatherDisplay:10.37,2013-07-03 23:29:00,
2013-07-03 16:34:00,73.8,62.5,30.06,East,90,8.1,8.1,68,0.00,CLR,,0.00,WeatherDisplay:10.37,2013-07-03 23:34:00,
2013-07-03 16:39:00,73.2,62.0,30.06,NW,315,6.9,8.3,68,0.00,CLR,,0.00,WeatherDisplay:10.37,2013-07-03 23:39:00,
2013-07-03 16:45:00,73.2,62.0,30.06,NE,45,6.9,6.9,68,0.00,CLR,,0.00,WeatherDisplay:10.37,2013-07-03 23:45:00,
2013-07-03 16:50:00,73.6,62.4,30.06,NE,45,12.7,12.7,68,0.00,CLR,,0.00,WeatherDisplay:10.37,2013-07-03 23:50:00,
2013-07-03 16:55:00,73.9,62.7,30.06,SE,135,5.8,5.8,68,0.00,CLR,,0.00,WeatherDisplay:10.37,2013-07-03 23:55:00,
2013-07-03 17:01:00,74.1,62.9,30.06,NW,315,10.4,10.4,68,0.00,CLR,,0.00,WeatherDisplay:10.37,2013-07-04 00:01:00,
2013-07-03 17:06:00,73.4,62.2,30.05,North,0,20.7,20.7,68,0.00,CLR,,0.00,WeatherDisplay:10.37,2013-07-04 00:06:00,
2013-07-03 17:11:00,74.3,63.1,30.06,NE,45,3.5,3.5,68,0.00,CLR,,0.00,WeatherDisplay:10.37,2013-07-04 00:11:00,
2013-07-03 17:17:00,74.1,62.9,30.05,SW,225,10.4,10.4,68,0.00,CLR,,0.00,WeatherDisplay:10.37,2013-07-04 00:17:00,
2013-07-03 17:22:00,74.5,63.2,30.06,West,270,8.1,8.1,68,0.00,CLR,,0.00,WeatherDisplay:10.37,2013-07-04 00:22:00,
2013-07-03 17:27:00,74.5,63.2,30.06,South,180,5.8,5.8,68,0.00,CLR,,0.00,WeatherDisplay:10.37,2013-07-04 00:27:00,
2013-07-03 17:32:00,74.3,63.1,30.06,SE,135,16.1,16.1,68,0.00,CLR,,0.00,WeatherDisplay:10.37,2013-07-04 00:32:00,
2013-07-03 17:37:00,73.9,62.7,30.06,East,90,5.8,5.8,68,0.00,CLR,,0.00,WeatherDisplay:10.37,2013-07-04 00:37:00,
2013-07-03 17:42:00,73.4,62.2,30.06,West,270,15.0,15.0,68,0.00,CLR,,0.00,WeatherDisplay:10.37,2013-07-04 00:42:00,
2013-07-03 17:47:00,73.4,62.2,30.06,East,90,6.0,6.0,68,0.00,CLR,,0.00,WeatherDisplay:10.37,2013-07-04 00:47:00,
2013-07-03 17:52:00,73.0,61.9,30.06,West,270,6.9,6.9,68,0.00,CLR,,0.00,WeatherDisplay:10.37,2013-07-04 00:52:00,
2013-07-03 17:57:00,73.8,62.5,30.06,NE,45,5.8,5.8,68,0.00,CLR,,0.00,WeatherDisplay:10.37,2013-07-04 00:57:00,
2013-07-03 18:02:00,73.8,62.5,30.06,East,90,11.5,11.5,68,0.00,CLR,,0.00,WeatherDisplay:10.37,2013-07-04 01:02:00,
2013-07-03 18:07:00,73.0,61.9,30.06,NE,45,10.4,10.4,68,0.00,CLR,,0.00,WeatherDisplay:10.37,2013-07-04 01:07:00,
2013-07-03 18:13:00,73.0,61.9,30.06,South,180,5.8,5.8,68,0.00,CLR,,0.00,WeatherDisplay:10.37,2013-07-04 01:13:00,
2013-07-03 18:18:00,72.9,61.7,30.07,SW,225,5.8,5.8,68,0.00,CLR,,0.00,WeatherDisplay:10.37,2013-07-04 01:18:00,
2013-07-03 18:23:00,72.7,61.5,30.06,West,270,12.7,12.7,68,0.00,CLR,,0.00,WeatherDisplay:10.37,2013-07-04 01:23:00,
2013-07-03 18:28:00,72.5,61.3,30.06,NW,315,6.9,6.9,68,0.00,CLR,,0.00,WeatherDisplay:10.37,2013-07-04 01:28:00,
2013-07-03 18:33:00,71.6,60.5,30.07,ENE,68,13.8,13.8,68,0.00,CLR,,0.00,WeatherDisplay:10.37,2013-07-04 01:33:00,
2013-07-03 18:38:00,71.2,60.1,30.07,East,90,8.1,8.1,68,0.00,CLR,,0.00,WeatherDisplay:10.37,2013-07-04 01:38:00,
2013-07-03 18:43:00,71.4,60.3,30.07,SE,135,16.1,16.1,68,0.00,CLR,,0.00,WeatherDisplay:10.37,2013-07-04 01:43:00,
2013-07-03 18:48:00,70.7,59.6,30.08,West,270,12.7,12.7,68,0.00,CLR,,0.00,WeatherDisplay:10.37,2013-07-04 01:48:00,
2013-07-03 18:53:00,70.0,58.9,30.08,North,0,10.4,10.4,68,0.00,CLR,,0.00,WeatherDisplay:10.37,2013-07-04 01:53:00,
2013-07-03 18:58:00,69.8,58.8,30.07,North,0,11.5,11.5,68,0.00,CLR,,0.00,WeatherDisplay:10.37,2013-07-04 01:58:00,
2013-07-03 19:03:00,69.4,58.4,30.07,NE,45,5.8,5.8,68,0.00,CLR,,0.00,WeatherDisplay:10.37,2013-07-04 02:03:00,
2013-07-03 19:08:00,69.6,58.6,30.07,East,90,17.3,17.3,68,0.00,CLR,,0.00,WeatherDisplay:10.37,2013-07-04 02:08:00,
2013-07-03 19:13:00,69.3,58.2,30.08,North,0,12.7,12.7,68,0.00,CLR,,0.00,WeatherDisplay:10.37,2013-07-04 02:13:00,
2013-07-03 19:18:00,68.5,57.6,30.07,NE,45,8.1,8.1,68,0.00,CLR,,0.00,WeatherDisplay:10.37,2013-07-04 02:18:00,
2013-07-03 19:24:00,68.0,57.0,30.07,NE,45,8.1,8.1,68,0.00,CLR,,0.00,WeatherDisplay:10.37,2013-07-04 02:24:00,
2013-07-03 19:29:00,68.2,57.2,30.07,NW,315,12.7,12.7,68,0.00,CLR,,0.00,WeatherDisplay:10.37,2013-07-04 02:29:00,
2013-07-03 19:35:00,67.8,56.9,30.07,South,180,9.2,9.2,68,0.00,CLR,,0.00,WeatherDisplay:10.37,2013-07-04 02:35:00,
2013-07-03 19:40:00,67.3,56.4,30.07,SSW,202,5.8,5.8,68,0.00,CLR,,0.00,WeatherDisplay:10.37,2013-07-04 02:40:00,
2013-07-03 19:45:00,66.6,55.7,30.07,NE,45,9.2,9.2,68,0.00,CLR,,0.00,WeatherDisplay:10.37,2013-07-04 02:45:00,
2013-07-03 19:50:00,64.9,54.1,30.08,NE,45,8.1,8.1,68,0.00,CLR,,0.00,WeatherDisplay:10.37,2013-07-04 02:50:00,
2013-07-03 19:55:00,64.4,53.6,30.08,NW,315,4.6,4.6,68,0.00,CLR,,0.00,WeatherDisplay:10.37,2013-07-04 02:55:00,
2013-07-03 20:00:00,64.4,53.6,30.07,NE,45,4.6,4.6,68,0.00,CLR,,0.00,WeatherDisplay:10.37,2013-07-04 03:00:00,
2013-07-03 20:05:00,64.2,53.4,30.08,West,270,5.8,5.8,68,0.00,CLR,,0.00,WeatherDisplay:10.37,2013-07-04 03:05:00,
2013-07-03 20:10:00,63.9,53.1,30.08,SE,135,4.6,4.6,68,0.00,CLR,,0.00,WeatherDisplay:10.37,2013-07-04 03:10:00,
2013-07-03 20:15:00,63.5,52.7,30.08,NW,315,4.6,4.6,68,0.00,CLR,,0.00,WeatherDisplay:10.37,2013-07-04 03:15:00,
2013-07-03 20:20:00,62.8,52.1,30.08,West,270,10.7,10.7,68,0.00,CLR,,0.00,WeatherDisplay:10.37,2013-07-04 03:20:00,
2013-07-03 20:26:00,62.2,51.5,30.08,North,0,10.4,10.4,68,0.00,CLR,,0.00,WeatherDisplay:10.37,2013-07-04 03:26:00,
2013-07-03 20:31:00,61.9,51.2,30.08,NW,315,4.6,4.6,68,0.00,CLR,,0.00,WeatherDisplay:10.37,2013-07-04 03:31:00,
2013-07-03 20:37:00,61.5,50.9,30.08,NE,45,8.1,8.1,68,0.00,CLR,,0.00,WeatherDisplay:10.37,2013-07-04 03:37:00,
2013-07-03 20:42:00,61.2,50.5,30.08,NW,315,8.1,8.1,68,0.00,CLR,,0.00,WeatherDisplay:10.37,2013-07-04 03:42:00,
2013-07-03 20:47:00,61.0,50.3,30.08,North,0,4.6,4.6,68,0.00,CLR,,0.00,WeatherDisplay:10.37,2013-07-04 03:47:00,
2013-07-03 20:52:00,60.8,50.2,30.08,North,0,8.1,8.1,68,0.00,CLR,,0.00,WeatherDisplay:10.37,2013-07-04 03:52:00,
2013-07-03 20:57:00,60.6,50.0,30.08,East,90,4.6,4.6,68,0.00,CLR,,0.00,WeatherDisplay:10.37,2013-07-04 03:57:00,
2013-07-03 21:01:00,60.4,49.8,30.09,NE,45,8.1,8.1,68,0.00,CLR,,0.00,WeatherDisplay:10.37,2013-07-04 04:01:00,
2013-07-03 21:02:00,60.4,49.8,30.09,NW,315,3.5,3.5,68,0.00,CLR,,0.00,WeatherDisplay:10.37,2013-07-04 04:02:00,
2013-07-03 21:03:00,60.4,49.8,30.09,NE,45,3.5,4.5,68,0.00,CLR,,0.00,WeatherDisplay:10.37,2013-07-04 04:03:00,
2013-07-03 21:06:00,60.4,49.8,30.09,West,270,3.5,0.0,68,0.00,CLR,,0.00,WeatherDisplay:10.37,2013-07-04 04:06:00,
2013-07-03 21:11:00,60.3,49.7,30.08,North,0,10.4,10.4,68,0.00,CLR,,0.00,WeatherDisplay:10.37,2013-07-04 04:11:00,
2013-07-03 21:16:00,60.1,49.5,30.08,NW,315,3.5,3.5,68,0.00,CLR,,0.00,WeatherDisplay:10.37,2013-07-04 04:16:00,
2013-07-03 21:21:00,59.9,5.2,30.08,NE,45,10.4,10.4,11,0.00,CLR,,0.00,WeatherDisplay:10.37,2013-07-04 04:21:00,
2013-07-03 21:26:00,59.7,6.9,30.09,East,90,4.6,4.6,12,0.00,CLR,,0.00,WeatherDisplay:10.37,2013-07-04 04:26:00,
2013-07-03 21:31:00,59.5,8.6,30.09,NE,45,5.8,5.8,13,0.00,CLR,,0.00,WeatherDisplay:10.37,2013-07-04 04:31:00,
2013-07-03 21:36:00,59.5,11.8,30.10,NE,45,4.6,4.6,15,0.00,CLR,,0.00,WeatherDisplay:10.37,2013-07-04 04:36:00,
2013-07-03 21:41:00,59.2,12.9,30.10,NW,315,5.8,5.8,16,0.00,CLR,,0.00,WeatherDisplay:10.37,2013-07-04 04:41:00,
2013-07-03 21:46:00,59.2,14.3,30.10,NW,315,5.8,5.8,17,0.00,CLR,,0.00,WeatherDisplay:10.37,2013-07-04 04:46:00,
2013-07-03 21:51:00,59.2,14.3,30.10,NE,45,4.6,4.6,17,0.00,CLR,,0.00,WeatherDisplay:10.37,2013-07-04 04:51:00,
2013-07-03 21:56:00,59.0,15.5,30.10,SW,225,3.5,3.5,18,0.00,CLR,,0.00,WeatherDisplay:10.37,2013-07-04 04:56:00,
2013-07-03 22:01:00,58.8,16.6,30.10,SE,135,3.5,0.0,19,0.00,CLR,,0.00,WeatherDisplay:10.37,2013-07-04 05:01:00,
2013-07-03 22:06:00,58.8,17.8,30.11,SE,135,5.8,5.8,20,0.00,CLR,,0.00,WeatherDisplay:10.37,2013-07-04 05:06:00,
2013-07-03 22:11:00,58.8,18.9,30.11,SW,225,3.5,3.5,21,0.00,CLR,,0.00,WeatherDisplay:10.37,2013-07-04 05:11:00,
2013-07-03 22:16:00,58.8,18.9,30.11,NE,45,4.6,4.6,21,0.00,CLR,,0.00,WeatherDisplay:10.37,2013-07-04 05:16:00,
2013-07-03 22:21:00,58.8,18.9,30.11,NW,315,5.8,5.8,21,0.00,CLR,,0.00,WeatherDisplay:10.37,2013-07-04 05:21:00,
2013-07-03 22:26:00,58.6,19.9,30.11,East,90,3.5,3.5,22,0.00,CLR,,0.00,WeatherDisplay:10.37,2013-07-04 05:26:00,
2013-07-03 22:31:00,58.6,19.9,30.10,West,270,9.2,9.2,22,0.00,CLR,,0.00,WeatherDisplay:10.37,2013-07-04 05:31:00,
2013-07-03 22:36:00,58.6,20.9,30.11,NE,45,2.3,2.3,23,0.00,CLR,,0.00,WeatherDisplay:10.37,2013-07-04 05:36:00,
2013-07-03 22:41:00,58.6,20.9,30.11,SE,135,2.3,2.3,23,0.00,CLR,,0.00,WeatherDisplay:10.37,2013-07-04 05:41:00,
2013-07-03 22:46:00,58.5,20.7,30.11,West,270,3.5,0.0,23,0.00,CLR,,0.00,WeatherDisplay:10.37,2013-07-04 05:46:00,
2013-07-03 22:51:00,58.5,20.7,30.11,North,0,3.5,3.5,23,0.00,CLR,,0.00,WeatherDisplay:10.37,2013-07-04 05:51:00,
2013-07-03 22:56:00,58.3,21.6,30.11,SW,225,3.5,0.0,24,0.00,CLR,,0.00,WeatherDisplay:10.37,2013-07-04 05:56:00,
2013-07-03 23:01:00,58.1,22.4,30.11,SE,135,1.2,0.0,25,0.00,CLR,,0.00,WeatherDisplay:10.37,2013-07-04 06:01:00,
2013-07-03 23:06:00,58.1,22.4,30.11,East,90,3.5,3.5,25,0.00,CLR,,0.00,WeatherDisplay:10.37,2013-07-04 06:06:00,
2013-07-03 23:11:00,58.1,23.3,30.10,North,0,3.5,0.0,26,0.00,CLR,,0.00,WeatherDisplay:10.37,2013-07-04 06:11:00,
2013-07-03 23:16:00,57.9,24.1,30.11,NE,45,2.3,2.3,27,0.00,CLR,,0.00,WeatherDisplay:10.37,2013-07-04 06:16:00,
2013-07-03 23:21:00,57.9,25.0,30.11,West,270,4.6,4.6,28,0.00,CLR,,0.00,WeatherDisplay:10.37,2013-07-04 06:21:00,
2013-07-03 23:26:00,57.9,25.8,30.11,South,180,5.8,5.8,29,0.00,CLR,,0.00,WeatherDisplay:10.37,2013-07-04 06:26:00,
2013-07-03 23:31:00,57.7,25.7,30.10,North,0,1.2,0.0,29,0.00,CLR,,0.00,WeatherDisplay:10.37,2013-07-04 06:31:00,
2013-07-03 23:36:00,57.6,25.5,30.10,NW,315,1.2,0.0,29,0.00,CLR,,0.00,WeatherDisplay:10.37,2013-07-04 06:36:00,
2013-07-03 23:41:00,57.6,27.1,30.10,West,270,3.5,3.5,31,0.00,CLR,,0.00,WeatherDisplay:10.37,2013-07-04 06:41:00,
2013-07-03 23:46:00,57.4,27.0,30.10,NW,315,2.3,0.0,31,0.00,CLR,,0.00,WeatherDisplay:10.37,2013-07-04 06:46:00,
2013-07-03 23:51:00,57.2,27.6,30.10,NW,315,3.5,0.0,32,0.00,CLR,,0.00,WeatherDisplay:10.37,2013-07-04 06:51:00,
2013-07-03 23:56:00,57.2,27.6,30.09,West,270,2.3,2.3,32,0.00,CLR,,0.00,WeatherDisplay:10.37,2013-07-04 06:56:00,